Location: Newark
(13.8625°N, 100.5144°E)
Time: 19:03:26
(UTC+00:00)

LightSail 2 - Pass Details

Date: 12 May 2021
Orbit: 685 x 700 km, 24.0° (Epoch: 11 June)

Event Time Altitude Azimuth Distance (km) Brightness Sun altitude
Exits shadow 22:13:51 - 297° (WNW) 3,022 8.0 -9.5°
Reaches altitude 10° 22:16:18 10° 303° (WNW) 2,129 7.3 -8.9°
Maximum altitude 22:21:05 44° 15° (NNE) 947 6.1 -7.9°
Drops below altitude 10° 22:25:51 10° 87° (E) 2,120 9.0 -6.8°
Sets 22:28:21 0° 94° (E) 3,033 9.8 -6.2°
